Weather History for Chicopee, MA

Change the Weather History Date:

Thursday, February 28, 2013

  Actual Average Record
Temperature  
Mean Temperature 36 °F -  
Max Temperature 42 °F 38 °F 57 °F (1998)
Min Temperature 30 °F 22 °F 0 °F (2014)
Degree Days  
Heating Degree Days 29    
Moisture  
Dew Point 34 °F    
Average Humidity 96    
Maximum Humidity 100    
Minimum Humidity 76    
Precipitation  
Precipitation 0.00 in - - ()
Sea Level Pressure  
Sea Level Pressure 29.60 in    
Wind  
Wind Speed 2 mph (North)    
Max Wind Speed 7 mph    
Max Gust Speed -    
Visibility 7 miles    
Events Rain , Snow    
Averages and records for this station are not official NWS values.
T = Trace of Precipitation, MM = Missing Value Source: NWS Daily Summary

Daily Weather History Graph

Daily Weather History Graph

Search for Another Location

Airport:

Trip Planner

Search our weather history database for the weather conditions in past years. The results will help you decide how hot, cold, wet, or windy it might be!

Date:

Astronomy

Feb. 28, 2013 Rise Set
Actual Time 6:26 AM EST 5:39 PM EST
Civil Twilight 5:58 AM EST 6:07 PM EST
Nautical Twilight 5:26 AM EST 6:39 PM EST
Astronomical Twilight 4:53 AM EST 7:12 PM EST
Moon 9:08 PM EST (2/28) 7:30 AM EST (2/28)
Length of Visible Light 12h 08m
Length of Day
11h 12m
Waning Gibbous, 91% of the Moon is Illuminated
Feb 28
Waning Gibbous
Mar 4
Last Quarter
Mar 11
New
Mar 19
First Quarter
Mar 27
Full

Hourly Weather History & Observations

Time (EST) Temp. Windchill Dew Point Humidity Pressure Visibility Wind Dir Wind Speed Gust Speed Precip Events Conditions
12:26 AM 33.8 °F 28.6 °F 32.0 °F 93% 29.62 in 10.0 mi North 5.8 mph - N/A   Overcast
12:40 AM 33.8 °F 30.8 °F 33.8 °F 100% 29.62 in 10.0 mi North 3.5 mph - N/A   Overcast
12:44 AM 33.8 °F 29.6 °F 33.8 °F 100% 29.62 in 10.0 mi North 4.6 mph - N/A   Overcast
12:55 AM 34.0 °F 29.8 °F 33.4 °F 98% 29.62 in 10.0 mi North 4.6 mph - 0.00 in   Overcast
1:55 AM 33.4 °F 28.1 °F 32.9 °F 98% 29.61 in 10.0 mi NE 5.8 mph - N/A   Overcast
2:11 AM 33.8 °F 30.8 °F 32.0 °F 93% 29.60 in 10.0 mi NE 3.5 mph - N/A   Overcast
2:36 AM 33.8 °F - 33.8 °F 100% 29.61 in 10.0 mi Calm Calm - N/A   Overcast
2:55 AM 33.4 °F 30.4 °F 32.9 °F 98% 29.60 in 10.0 mi North 3.5 mph - N/A   Overcast
3:04 AM 33.8 °F 29.6 °F 33.8 °F 100% 29.60 in 10.0 mi NNE 4.6 mph - N/A   Overcast
3:55 AM 32.0 °F - 31.5 °F 98% 29.60 in 10.0 mi Calm Calm - N/A   Clear
4:12 AM 30.2 °F - 30.2 °F 100% 29.61 in 9.0 mi Calm Calm - N/A   Mostly Cloudy
4:14 AM 30.2 °F - 30.2 °F 100% 29.61 in 10.0 mi Calm Calm - N/A   Mostly Cloudy
4:55 AM 31.8 °F - 31.3 °F 98% 29.63 in 10.0 mi Calm Calm - N/A   Overcast
5:18 AM 32.0 °F - 32.0 °F 100% 29.62 in 2.5 mi Calm Calm - N/A   Overcast
5:20 AM 32.0 °F - 32.0 °F 100% 29.62 in 2.0 mi Calm Calm - N/A   Overcast
5:21 AM 32.0 °F - 32.0 °F 100% 29.62 in 1.8 mi Calm Calm - N/A   Overcast
5:22 AM 32.0 °F - 32.0 °F 100% 29.62 in 1.5 mi Calm Calm - N/A   Overcast
5:23 AM 32.0 °F - 32.0 °F 100% 29.62 in 1.2 mi Calm Calm - N/A   Overcast
5:25 AM 32.0 °F - 32.0 °F 100% 29.62 in 1.0 mi Calm Calm - N/A   Overcast
5:26 AM 32.0 °F - 32.0 °F 100% 29.62 in 1.0 mi Calm Calm - N/A   Overcast
5:27 AM 32.0 °F - 32.0 °F 100% 29.62 in 1.0 mi Calm Calm - N/A   Overcast
5:28 AM 32.0 °F - 32.0 °F 100% 29.62 in 1.0 mi Calm Calm - N/A   Overcast
5:30 AM 32.0 °F - 32.0 °F 100% 29.62 in 1.2 mi Calm Calm - N/A   Overcast
5:32 AM 32.0 °F - 32.0 °F 100% 29.62 in 1.5 mi Calm Calm - N/A   Overcast
5:33 AM 32.0 °F - 32.0 °F 100% 29.62 in 1.8 mi Calm Calm - N/A   Overcast
5:34 AM 32.0 °F - 32.0 °F 100% 29.62 in 2.0 mi Calm Calm - N/A   Overcast
5:35 AM 32.0 °F - 32.0 °F 100% 29.62 in 2.5 mi Calm Calm - N/A   Overcast
5:36 AM 32.0 °F - 32.0 °F 100% 29.62 in 3.0 mi Calm Calm - N/A   Overcast
5:55 AM 31.8 °F - 31.5 °F 99% 29.63 in 5.0 mi Calm Calm - N/A   Overcast
5:59 AM 32.0 °F - 32.0 °F 100% 29.62 in 2.5 mi Calm Calm - N/A   Overcast
6:00 AM 32.0 °F 28.7 °F 32.0 °F 100% 29.62 in 2.0 mi East 3.5 mph - N/A   Overcast
6:02 AM 32.0 °F 28.7 °F 32.0 °F 100% 29.62 in 1.8 mi East 3.5 mph - N/A   Overcast
6:03 AM 32.0 °F 28.7 °F 32.0 °F 100% 29.62 in 1.5 mi East 3.5 mph - N/A   Overcast
6:06 AM 32.0 °F - 32.0 °F 100% 29.62 in 1.2 mi Calm Calm - N/A   Overcast
6:17 AM 32.0 °F - 32.0 °F 100% 29.62 in 10.0 mi Calm Calm - N/A   Overcast
6:34 AM 32.0 °F - 30.2 °F 93% 29.62 in 10.0 mi Calm Calm - N/A   Overcast
6:55 AM 32.2 °F - 31.8 °F 99% 29.62 in 9.0 mi Calm Calm - N/A   Overcast
7:48 AM 32.0 °F - 32.0 °F 100% 29.63 in 8.0 mi Calm Calm - N/A   Overcast
7:55 AM 32.7 °F - 32.2 °F 98% 29.63 in 5.0 mi Calm Calm - N/A   Overcast
7:56 AM 32.0 °F - 32.0 °F 100% 29.63 in 5.0 mi Calm Calm - N/A   Overcast
7:59 AM 32.0 °F - 32.0 °F 100% 29.63 in 4.0 mi Calm Calm - N/A   Overcast
8:14 AM 33.8 °F - 32.0 °F 93% 29.63 in 2.5 mi Calm Calm - N/A Snow Light Snow
8:47 AM 33.8 °F - 33.8 °F 100% 29.64 in 3.0 mi Calm Calm - N/A Rain Light Rain
8:55 AM 33.8 °F - 33.3 °F 98% 29.64 in 5.0 mi Calm Calm - 0.00 in Rain Light Rain
8:59 AM 33.8 °F - 33.8 °F 100% 29.64 in 6.0 mi Calm Calm - N/A   Overcast
9:01 AM 33.8 °F - 33.8 °F 100% 29.63 in 7.0 mi Calm Calm - N/A   Overcast
9:04 AM 33.8 °F - 33.8 °F 100% 29.63 in 8.0 mi Calm Calm - N/A   Overcast
9:09 AM 33.8 °F - 33.8 °F 100% 29.63 in 9.0 mi Calm Calm - N/A   Overcast
9:12 AM 33.8 °F - 33.8 °F 100% 29.63 in 10.0 mi Calm Calm - N/A   Overcast
9:38 AM 33.8 °F - 33.8 °F 100% 29.63 in 10.0 mi Calm Calm - N/A   Overcast
9:55 AM 35.2 °F - 34.7 °F 98% 29.63 in 10.0 mi Calm Calm - 0.00 in   Overcast
10:15 AM 35.6 °F - 35.6 °F 100% 29.62 in 10.0 mi Calm Calm - N/A   Overcast
10:21 AM 35.6 °F - 35.6 °F 100% 29.62 in 10.0 mi Calm Calm - N/A   Overcast
10:24 AM 35.6 °F - 35.6 °F 100% 29.62 in 10.0 mi Calm Calm - N/A   Overcast
10:37 AM 35.6 °F - 35.6 °F 100% 29.62 in 10.0 mi Calm Calm - N/A   Overcast
10:38 AM 35.6 °F - 35.6 °F 100% 29.62 in 10.0 mi Calm Calm - N/A   Overcast
10:55 AM 37.0 °F - 36.5 °F 98% 29.62 in 10.0 mi Calm Calm - 0.00 in   Overcast
11:10 AM 37.4 °F - 37.4 °F 100% 29.61 in 10.0 mi Calm Calm - N/A   Overcast
11:55 AM 38.1 °F - 36.9 °F 95% 29.60 in 10.0 mi Calm Calm - 0.00 in   Overcast
12:04 PM 37.4 °F - 37.4 °F 100% 29.60 in 10.0 mi Calm Calm - N/A   Overcast
12:17 PM 39.2 °F - 35.6 °F 87% 29.59 in 10.0 mi Calm Calm - N/A   Overcast
12:39 PM 39.2 °F - 37.4 °F 93% 29.58 in 10.0 mi Calm Calm - N/A   Overcast
12:55 PM 40.5 °F - 36.9 °F 87% 29.58 in 10.0 mi Calm Calm - N/A   Overcast
1:36 PM 41.0 °F - 37.4 °F 87% 29.57 in 10.0 mi Calm Calm - N/A   Overcast
1:54 PM 42.8 °F 41.1 °F 37.4 °F 81% 29.56 in 10.0 mi NNE 3.5 mph - N/A   Scattered Clouds
1:55 PM 41.7 °F - 37.2 °F 84% 29.56 in 10.0 mi Calm Calm - N/A   Scattered Clouds
1:58 PM 41.0 °F 38.0 °F 37.4 °F 87% 29.55 in 10.0 mi NE 4.6 mph - N/A   Mostly Cloudy
2:06 PM 41.0 °F 38.0 °F 37.4 °F 87% 29.55 in 10.0 mi East 4.6 mph - N/A   Mostly Cloudy
2:36 PM 42.8 °F 40.1 °F 37.4 °F 81% 29.56 in 10.0 mi West 4.6 mph - N/A   Mostly Cloudy
2:55 PM 41.7 °F - 36.5 °F 82% 29.56 in 10.0 mi Calm Calm - N/A   Overcast
3:03 PM 41.0 °F - 35.6 °F 81% 29.56 in 10.0 mi Calm Calm - N/A   Overcast
3:23 PM 42.8 °F 41.1 °F 35.6 °F 76% 29.56 in 10.0 mi WNW 3.5 mph - N/A   Overcast
3:55 PM 41.9 °F 39.0 °F 36.0 °F 79% 29.56 in 10.0 mi WNW 4.6 mph - N/A   Overcast
4:55 PM 40.8 °F - 35.8 °F 82% 29.55 in 10.0 mi Calm Calm - N/A   Overcast
5:55 PM 38.7 °F 34.3 °F 35.1 °F 87% 29.56 in 10.0 mi NNW 5.8 mph - N/A   Overcast
6:05 PM 39.2 °F 35.0 °F 35.6 °F 87% 29.56 in 10.0 mi NNW 5.8 mph - N/A   Overcast
6:55 PM 37.8 °F 32.5 °F 34.9 °F 89% 29.56 in 10.0 mi North 6.9 mph - N/A   Overcast
7:55 PM 36.5 °F 33.9 °F 34.3 °F 92% 29.56 in 10.0 mi NW 3.5 mph - N/A   Overcast
8:55 PM 35.4 °F 32.6 °F 34.3 °F 96% 29.56 in 10.0 mi North 3.5 mph - N/A   Overcast
9:55 PM 33.3 °F - 32.7 °F 98% 29.56 in 10.0 mi Calm Calm - N/A   Overcast
10:55 PM 33.3 °F - 32.9 °F 99% 29.56 in 10.0 mi Calm Calm - N/A   Overcast
11:55 PM 33.1 °F - 32.7 °F 99% 29.57 in 10.0 mi Calm Calm - N/A   Overcast